• MPC Preparation (Info)

  • MPEC 2016-O256: 2014 YK50

    The following Minor Planet Electronic Circular may be linked-to from your own Web pages, but must not otherwise be redistributed electronically.

    A form allowing access to any MPEC is at the bottom of this page.


    Read MPEC 2016-O255 Read MPEC 2016-O257


    M.P.E.C. 2016-O256                               Issued 2016 July 17, 20:15 UT
    
         The Minor Planet Electronic Circulars contain information on unusual
             minor planets and routine data on comets.  They are published
        on behalf of Division F of the International Astronomical Union by the
              Minor Planet Center, Smithsonian Astrophysical Observatory,
                              Cambridge, MA 02138, U.S.A.
    
                 Prepared using the Tamkin Foundation Computer Network
    
                                  MPC@CFA.HARVARD.EDU
                URL https://www.minorplanetcenter.net/    ISSN 1523-6714
    
                                       2014 YK50
    
    Observations:
         K14Y50K  C2012 02 20.45068 12 28 16.490+13 22 09.53         21.6 wLEO256F51
         K14Y50K  C2012 02 20.46597 12 28 16.436+13 22 09.65         21.8 wLEO256F51
         K14Y50K  C2012 02 20.48126 12 28 16.381+13 22 10.12         21.8 wLEO256F51
         K14Y50K  C2012 02 20.49668 12 28 16.318+13 22 10.46         22.1 wLEO256F51
         K14Y50K  C2014 05 29.32024 12 31 13.410+10 49 11.29         21.7 wLEO256F51
         K14Y50K  C2014 05 29.33208 12 31 13.395+10 49 10.82         21.9 wLEO256F51
         K14Y50K  C2014 05 29.34395 12 31 13.378+10 49 10.74         21.6 wLEO256F51
         K14Y50K  C2014 05 29.35580 12 31 13.346+10 49 10.67         21.8 wLEO256F51
         K14Y50K* C2014 12 29.61243 12 44 02.253+08 44 40.30         21.9 wLEO256F51
         K14Y50K  C2014 12 29.62537 12 44 02.273+08 44 40.36         21.9 wLEO256F51
         K14Y50K  C2014 12 29.63845 12 44 02.297+08 44 40.57         22.0 wLEO256F51
         K14Y50K  C2014 12 29.65162 12 44 02.299+08 44 40.43         21.8 wLEO256F51
         K14Y50K  C2015 01 28.51830 12 43 54.463+08 51 05.97         22.1 wLEO256F51
         K14Y50K  C2015 01 28.53000 12 43 54.445+08 51 06.29         21.9 wLEO256F51
         K14Y50K  C2015 01 28.54168 12 43 54.426+08 51 06.40         21.9 wLEO256F51
         K14Y50K  C2015 01 28.55338 12 43 54.408+08 51 06.71         22.0 wLEO256F51
         K14Y50K  C2015 02 18.44208 12 43 00.328+08 59 19.76         21.8 wLEO256F51
         K14Y50K  C2015 02 18.45318 12 43 00.300+08 59 20.08         21.8 wLEO256F51
         K14Y50K  C2015 02 18.46397 12 43 00.266+08 59 20.48         22.1 wLEO256F51
         K14Y50K  C2015 02 18.47476 12 43 00.211+08 59 20.71         21.7 wLEO256F51
         K14Y50K  C2015 05 06.26943 12 37 16.094+09 24 07.64         21.3 iLEO256F51
         K14Y50K  C2015 05 06.28064 12 37 16.042+09 24 07.44         21.2 iLEO256F51
         K14Y50K  C2015 05 06.29191 12 37 15.992+09 24 07.57         21.1 iLEO256F51
    
    Observer details:
    F51 Pan-STARRS 1, Haleakala.  Observers B. Gibson, T. Goggia, N. Primak,
        A. Schultz, M. Willman.  Measurers K. Chambers, S. Chastel, Y.-T. Chen,
        L. Denneau, H. Flewelling, M. Holman, M. Huber, R. Jedicke, M. Lackner,
        E. Lilly, H.-W. Lin, E. Magnier, M. Micheli, M. Payne, P. Veres,
        R. Wainscoat, C. Waters, R. Weryk.  1.8-m Ritchey-Chretien + CCD.
    
    Orbital elements:
    2014 YK50
    Epoch 2016 July 31.0 TT = JDT 2457600.5                 MPC
    M 358.31928              (2000.0)            P               Q
    n   0.00074019     Peri.  169.07166     -0.94479565     +0.23227125
    a 121.0335202      Node    27.91690     -0.32532514     -0.58091717
    e   0.6779045      Incl.   29.57887     -0.03904778     -0.78011878
    P  1330            H    5.6           G   0.15           U   2
    Residuals in seconds of arc
    120220 F51  0.1-  0.3+    141229 F51  0.0   0.0     150218 F51  0.1-  0.0
    120220 F51  0.0   0.1-    141229 F51  0.0   0.0     150218 F51  0.0   0.1+
    120220 F51  0.1+  0.0     141229 F51  0.2+  0.1+    150218 F51  0.1+  0.2+
    120220 F51  0.0   0.2-    141229 F51  0.0   0.1-    150218 F51  0.2-  0.1+
    140529 F51  0.2-  0.1+    150128 F51  0.0   0.1-    150506 F51  0.1+  0.1+
    140529 F51  0.0   0.1-    150128 F51  0.0   0.0     150506 F51  0.0   0.2-
    140529 F51  0.1+  0.0     150128 F51  0.0   0.1-    150506 F51  0.1-  0.1-
    140529 F51  0.0   0.1+    150128 F51  0.1+  0.1-
    
    Ephemeris:
    2014 YK50                a,e,i = 121.03, 0.68, 30                q = 38.984
    Date    TT    R. A. (2000) Decl.     Delta      r     Elong.  Phase     V
    2016 06 17    12 40 25.7 +07 48 24  39.1471 39.3356   100.0     1.5    21.7
    ...
    2016 07 02    12 40 26.0 +07 41 23  39.3894 39.3311    86.0     1.5    21.7
    ...
    2016 07 10    12 40 34.7 +07 36 47  39.5179 39.3287    78.6     1.5    21.8
    ...
    2016 07 16    12 40 45.0 +07 32 58  39.6120 39.3269    73.0     1.4    21.8
    2016 07 17    12 40 47.1 +07 32 19  39.6274 39.3266    72.1     1.4    21.8
    2016 07 18    12 40 49.2 +07 31 38  39.6428 39.3263    71.2     1.4    21.8
    ...
    2016 07 24    12 41 03.7 +07 27 28  39.7328 39.3246    65.6     1.3    21.8
    ...
    2016 08 01    12 41 27.7 +07 21 33  39.8462 39.3222    58.3     1.3    21.8
    ...
    2016 08 16    12 42 26.2 +07 09 32  40.0321 39.3178    44.6     1.0    21.7
    
    A. U. Tomatic                (C) Copyright 2016 MPC           M.P.E.C. 2016-O256
    

    Read MPEC 2016-O255 Read MPEC 2016-O257


    MPEC number:

    Enter an MPEC number in one of the following forms:

    • 1997-B01 (the full form)
    • J97B01 (the packed version of the full form)
    • B01 (the abbreviated form)